When you browse on this site, cookies collect data to enhance your experience and personalize the content and advertising you see.
Visit our Privacy Policy to learn more. By continuing to use the site, you agree to this use of cookies and data.
  • In Lithuania
  • List of Countries
  • For 7 days
  • Water Temperature
  • Satellite Maps
  • Weather Map
  • Weather Widgets
  • user-avatar
    Login

    Hourly Weather Melbourne

    Today, 20 May, Monday

    Time Temperature Precipitation Wind Pressure Humidity
    00:00 +15°C° 0 mm 5 mps 766 mmHg 54%
    01:00 +15°C° 0 mm 5 mps 766 mmHg 53%
    02:00 +15°C° 0 mm 5 mps 766 mmHg 53%
    03:00 +15°C° 0 mm 5 mps 765 mmHg 53%
    04:00 +15°C° 0 mm 5 mps 765 mmHg 53%
    05:00 +16°C° 0 mm 6 mps 765 mmHg 53%
    06:00 +16°C° 0 mm 6 mps 765 mmHg 53%
    07:00 +16°C° 0 mm 7 mps 764 mmHg 53%
    08:00 +17°C° 0 mm 7 mps 764 mmHg 54%
    09:00 +17°C° 0 mm 7 mps 764 mmHg 55%
    10:00 +17°C° 0 mm 7 mps 764 mmHg 55%
    11:00 +18°C° 0.6 mm 7 mps 763 mmHg 57%
    12:00 +18°C° 0.6 mm 7 mps 763 mmHg 59%
    13:00 +19°C° 0.6 mm 6 mps 763 mmHg 61%
    14:00 +19°C° 0.2 mm 6 mps 762 mmHg 62%
    15:00 +19°C° 0.2 mm 5 mps 762 mmHg 64%
    16:00 +20°C° 0.2 mm 5 mps 762 mmHg 65%
    17:00 +19°C° 0.1 mm 4 mps 762 mmHg 68%
    18:00 +18°C° 0.1 mm 4 mps 762 mmHg 70%
    19:00 +17°C° 0.1 mm 3 mps 763 mmHg 73%
    20:00 +17°C° 0 mm 3 mps 763 mmHg 73%
    21:00 +16°C° 0 mm 3 mps 764 mmHg 73%
    22:00 +14°C° 0 mm 3 mps 764 mmHg 72%
    23:00 +15°C° 0 mm 2 mps 764 mmHg 74%

    Tomorrow, 21 May, Tuesday

    Time Temperature Precipitation Wind Pressure Humidity
    00:00 +15°C° 0 mm 2 mps 764 mmHg 76%
    01:00 +14°C° 0 mm 2 mps 764 mmHg 78%
    02:00 +14°C° 0 mm 2 mps 764 mmHg 79%
    03:00 +13°C° 0 mm 2 mps 764 mmHg 79%
    04:00 +13°C° 0 mm 2 mps 764 mmHg 80%
    05:00 +13°C° 0 mm 2 mps 764 mmHg 80%
    06:00 +12°C° 0 mm 3 mps 765 mmHg 81%
    07:00 +12°C° 0 mm 3 mps 765 mmHg 81%
    08:00 +13°C° 0 mm 3 mps 766 mmHg 77%
    09:00 +14°C° 0 mm 3 mps 766 mmHg 72%
    10:00 +16°C° 0 mm 3 mps 766 mmHg 68%
    11:00 +18°C° 0 mm 3 mps 766 mmHg 64%
    12:00 +19°C° 0 mm 3 mps 765 mmHg 60%
    13:00 +20°C° 0 mm 3 mps 765 mmHg 57%
    14:00 +19°C° 0 mm 3 mps 765 mmHg 58%
    15:00 +19°C° 0 mm 3 mps 765 mmHg 59%
    16:00 +19°C° 0 mm 3 mps 765 mmHg 60%
    17:00 +18°C° 0 mm 2 mps 765 mmHg 63%
    18:00 +17°C° 0 mm 2 mps 766 mmHg 66%
    19:00 +17°C° 0 mm 2 mps 766 mmHg 69%
    20:00 +16°C° 0 mm 2 mps 767 mmHg 72%
    21:00 +16°C° 0 mm 3 mps 767 mmHg 74%
    22:00 +14°C° 0 mm 3 mps 767 mmHg 76%
    23:00 +14°C° 0 mm 3 mps 767 mmHg 77%

    Day after tomorrow, 22 May, Wednesday

    Time Temperature Precipitation Wind Pressure Humidity
    00:00 +13°C° 0 mm 3 mps 767 mmHg 78%
    01:00 +13°C° 0 mm 3 mps 767 mmHg 79%
    02:00 +13°C° 0 mm 3 mps 767 mmHg 80%
    03:00 +13°C° 0 mm 3 mps 767 mmHg 80%
    04:00 +12°C° 0 mm 3 mps 768 mmHg 81%
    05:00 +12°C° 0 mm 3 mps 768 mmHg 81%
    06:00 +12°C° 0 mm 3 mps 768 mmHg 81%
    07:00 +12°C° 0 mm 3 mps 769 mmHg 81%
    08:00 +13°C° 0 mm 3 mps 769 mmHg 75%
    09:00 +16°C° 0 mm 2 mps 769 mmHg 68%
    10:00 +17°C° 0 mm 2 mps 770 mmHg 62%
    11:00 +18°C° 0 mm 2 mps 769 mmHg 54%
    12:00 +20°C° 0 mm 2 mps 769 mmHg 47%
    13:00 +22°C° 0 mm 1 mps 769 mmHg 39%
    14:00 +22°C° 0 mm 1 mps 769 mmHg 41%
    15:00 +22°C° 0 mm 1 mps 769 mmHg 43%
    16:00 +22°C° 0 mm 1 mps 769 mmHg 45%
    17:00 +20°C° 0 mm 1 mps 769 mmHg 53%
    18:00 +18°C° 0 mm 1 mps 769 mmHg 61%
    19:00 +16°C° 0 mm 1 mps 770 mmHg 69%
    20:00 +15°C° 0 mm 1 mps 770 mmHg 71%
    21:00 +15°C° 0 mm 1 mps 770 mmHg 74%
    22:00 +14°C° 0 mm 1 mps 771 mmHg 77%
    23:00 +14°C° 0 mm 1 mps 771 mmHg 77%

    23 May, Thursday

    Time Temperature Precipitation Wind Pressure Humidity
    00:00 +13°C° 0 mm 1 mps 770 mmHg 77%
    01:00 +13°C° 0 mm 1 mps 770 mmHg 78%
    02:00 +13°C° 0 mm 1 mps 770 mmHg 77%
    03:00 +13°C° 0 mm 2 mps 770 mmHg 77%
    04:00 +12°C° 0 mm 2 mps 770 mmHg 76%
    05:00 +12°C° 0 mm 2 mps 770 mmHg 76%
    06:00 +12°C° 0 mm 2 mps 770 mmHg 76%
    07:00 +12°C° 0 mm 2 mps 770 mmHg 76%
    08:00 +13°C° 0 mm 3 mps 770 mmHg 70%
    09:00 +14°C° 0 mm 3 mps 770 mmHg 64%
    10:00 +17°C° 0 mm 3 mps 770 mmHg 58%
    11:00 +18°C° 0 mm 3 mps 769 mmHg 53%
    12:00 +20°C° 0 mm 3 mps 769 mmHg 48%
    13:00 +22°C° 0 mm 3 mps 768 mmHg 43%
    14:00 +21°C° 0 mm 4 mps 767 mmHg 46%
    15:00 +21°C° 0 mm 4 mps 767 mmHg 49%
    16:00 +21°C° 0 mm 4 mps 767 mmHg 52%
    17:00 +20°C° 0 mm 4 mps 767 mmHg 56%
    18:00 +18°C° 0 mm 4 mps 767 mmHg 59%
    19:00 +17°C° 0 mm 4 mps 767 mmHg 63%
    20:00 +17°C° 0 mm 4 mps 767 mmHg 62%
    21:00 +17°C° 0 mm 4 mps 767 mmHg 62%
    22:00 +16°C° 0 mm 3 mps 767 mmHg 62%
    23:00 +16°C° 0 mm 3 mps 767 mmHg 61%

    24 May, Friday

    Time Temperature Precipitation Wind Pressure Humidity
    00:00 +15°C° 0 mm 4 mps 766 mmHg 61%
    01:00 +15°C° 0 mm 4 mps 766 mmHg 60%
    02:00 +14°C° 0 mm 4 mps 766 mmHg 61%
    03:00 +14°C° 0 mm 3 mps 766 mmHg 62%
    04:00 +13°C° 0 mm 3 mps 765 mmHg 64%
    05:00 +13°C° 0 mm 4 mps 765 mmHg 63%
    06:00 +13°C° 0 mm 4 mps 765 mmHg 62%
    07:00 +13°C° 0 mm 4 mps 765 mmHg 62%
    08:00 +14°C° 0 mm 5 mps 765 mmHg 58%
    09:00 +15°C° 0 mm 6 mps 765 mmHg 55%
    10:00 +16°C° 0 mm 6 mps 765 mmHg 51%
    11:00 +17°C° 0 mm 6 mps 764 mmHg 49%
    12:00 +19°C° 0 mm 6 mps 764 mmHg 48%
    13:00 +20°C° 0 mm 6 mps 763 mmHg 46%
    14:00 +19°C° 0.1 mm 6 mps 763 mmHg 51%
    15:00 +19°C° 0.1 mm 6 mps 763 mmHg 55%
    16:00 +19°C° 0.1 mm 5 mps 762 mmHg 59%
    17:00 +19°C° 0 mm 5 mps 762 mmHg 58%
    18:00 +19°C° 0 mm 5 mps 762 mmHg 58%
    19:00 +19°C° 0 mm 4 mps 762 mmHg 57%
    20:00 +18°C° 0.3 mm 4 mps 762 mmHg 61%
    21:00 +18°C° 0.3 mm 4 mps 762 mmHg 65%
    22:00 +18°C° 0.3 mm 4 mps 762 mmHg 68%
    23:00 +17°C° 0 mm 3 mps 762 mmHg 69%

    25 May, Saturday

    Time Temperature Precipitation Wind Pressure Humidity
    00:00 +17°C° 0 mm 3 mps 762 mmHg 70%
    01:00 +17°C° 0 mm 2 mps 762 mmHg 71%
    02:00 +17°C° 0 mm 2 mps 762 mmHg 72%
    03:00 +16°C° 0 mm 2 mps 762 mmHg 73%
    04:00 +16°C° 0 mm 2 mps 762 mmHg 74%
    05:00 +16°C° 0 mm 2 mps 762 mmHg 74%
    06:00 +16°C° 0 mm 2 mps 762 mmHg 75%
    07:00 +15°C° 0 mm 2 mps 762 mmHg 76%
    08:00 +16°C° 0 mm 2 mps 762 mmHg 71%
    09:00 +17°C° 0 mm 3 mps 762 mmHg 66%
    10:00 +18°C° 0 mm 3 mps 762 mmHg 61%
    11:00 +18°C° 0.4 mm 3 mps 761 mmHg 66%
    12:00 +18°C° 0.4 mm 4 mps 760 mmHg 70%
    13:00 +18°C° 0.4 mm 4 mps 760 mmHg 75%
    14:00 +18°C° 0.5 mm 4 mps 759 mmHg 76%
    15:00 +18°C° 0.5 mm 4 mps 759 mmHg 76%
    16:00 +18°C° 0.5 mm 4 mps 759 mmHg 77%
    17:00 +17°C° 0.5 mm 4 mps 758 mmHg 79%
    18:00 +16°C° 0.5 mm 5 mps 758 mmHg 80%
    19:00 +16°C° 0.5 mm 5 mps 758 mmHg 82%
    20:00 +16°C° 0.6 mm 5 mps 757 mmHg 81%
    21:00 +16°C° 0.6 mm 5 mps 757 mmHg 81%
    22:00 +16°C° 0.6 mm 5 mps 757 mmHg 81%
    23:00 +16°C° 0.1 mm 5 mps 756 mmHg 78%
    Show more